Year,Month,Day,Hour,Minute,Value (Times are PST for temperature in C)
2021,08,18,00,00,13.70
2021,08,18,00,01,13.70
2021,08,18,00,02,13.60
2021,08,18,00,03,13.60
2021,08,18,00,04,13.60
2021,08,18,00,05,13.60
2021,08,18,00,06,13.60
2021,08,18,00,07,13.60
2021,08,18,00,08,13.60
2021,08,18,00,09,13.50
2021,08,18,00,10,13.50
2021,08,18,00,11,13.50
2021,08,18,00,12,13.50
2021,08,18,00,13,13.40
2021,08,18,00,14,13.40
2021,08,18,00,15,13.40
2021,08,18,00,16,13.40
2021,08,18,00,17,13.40
2021,08,18,00,18,13.40
2021,08,18,00,19,13.30
2021,08,18,00,20,13.30
2021,08,18,00,21,13.30
2021,08,18,00,22,13.30
2021,08,18,00,23,13.30
2021,08,18,00,24,13.30
2021,08,18,00,25,13.30
2021,08,18,00,26,13.30
2021,08,18,00,27,13.30
2021,08,18,00,28,13.30
2021,08,18,00,29,13.30
2021,08,18,00,30,13.30
2021,08,18,00,31,13.30
2021,08,18,00,32,13.30
2021,08,18,00,33,13.30
2021,08,18,00,34,13.30
2021,08,18,00,35,13.30
2021,08,18,00,36,13.30
2021,08,18,00,37,13.30
2021,08,18,00,38,13.30
2021,08,18,00,39,13.30
2021,08,18,00,40,13.30
2021,08,18,00,41,13.30
2021,08,18,00,42,13.30
2021,08,18,00,43,13.30
2021,08,18,00,44,13.30
2021,08,18,00,45,13.30
2021,08,18,00,46,13.30
2021,08,18,00,47,13.30
2021,08,18,00,48,13.30
2021,08,18,00,49,13.30
2021,08,18,00,50,13.20
2021,08,18,00,51,13.20
2021,08,18,00,52,13.20
2021,08,18,00,53,13.20
2021,08,18,00,54,13.20
2021,08,18,00,55,13.10
2021,08,18,00,56,13.10
2021,08,18,00,57,13.10
2021,08,18,00,58,13.10
2021,08,18,00,59,13.10
2021,08,18,01,00,13.00
2021,08,18,01,01,13.10
2021,08,18,01,02,13.00
2021,08,18,01,03,13.00
2021,08,18,01,04,13.00
2021,08,18,01,05,13.00
2021,08,18,01,06,13.00
2021,08,18,01,07,12.90
2021,08,18,01,08,12.90
2021,08,18,01,09,12.90
2021,08,18,01,10,12.90
2021,08,18,01,11,12.90
2021,08,18,01,12,12.90
2021,08,18,01,13,12.90
2021,08,18,01,14,12.90
2021,08,18,01,15,12.90
2021,08,18,01,16,12.90
2021,08,18,01,17,12.90
2021,08,18,01,18,12.90
2021,08,18,01,19,12.90
2021,08,18,01,20,12.90
2021,08,18,01,21,12.90
2021,08,18,01,22,12.80
2021,08,18,01,23,12.80
2021,08,18,01,24,12.80
2021,08,18,01,25,12.80
2021,08,18,01,26,12.80
2021,08,18,01,27,12.80
2021,08,18,01,28,12.80
2021,08,18,01,29,12.80
2021,08,18,01,30,12.80
2021,08,18,01,31,12.80
2021,08,18,01,32,12.80
2021,08,18,01,33,12.80
2021,08,18,01,34,12.80
2021,08,18,01,35,12.80
2021,08,18,01,36,12.80
2021,08,18,01,37,12.70
2021,08,18,01,38,12.70
2021,08,18,01,39,12.70
2021,08,18,01,40,12.70
2021,08,18,01,41,12.70
2021,08,18,01,42,12.70
2021,08,18,01,43,12.70
2021,08,18,01,44,12.60
2021,08,18,01,45,12.60
2021,08,18,01,46,12.60
2021,08,18,01,47,12.60
2021,08,18,01,48,12.60
2021,08,18,01,49,12.60
2021,08,18,01,50,12.60
2021,08,18,01,51,12.50
2021,08,18,01,52,12.50
2021,08,18,01,53,12.50
2021,08,18,01,54,12.40
2021,08,18,01,55,12.40
2021,08,18,01,56,12.40
2021,08,18,01,57,12.40
2021,08,18,01,58,12.40
2021,08,18,01,59,12.40
2021,08,18,02,00,12.40
2021,08,18,02,01,12.40
2021,08,18,02,02,12.40
2021,08,18,02,03,12.40
2021,08,18,02,04,12.40
2021,08,18,02,05,12.40
2021,08,18,02,06,12.40
2021,08,18,02,07,12.40
2021,08,18,02,08,12.40
2021,08,18,02,09,12.40
2021,08,18,02,10,12.40
2021,08,18,02,11,12.40
2021,08,18,02,12,12.40
2021,08,18,02,13,12.40
2021,08,18,02,14,12.40
2021,08,18,02,15,12.40
2021,08,18,02,16,12.40
2021,08,18,02,17,12.40
2021,08,18,02,18,12.40
2021,08,18,02,19,12.40
2021,08,18,02,20,12.40
2021,08,18,02,21,12.40
2021,08,18,02,22,12.40
2021,08,18,02,23,12.40
2021,08,18,02,24,12.40
2021,08,18,02,25,12.30
2021,08,18,02,26,12.30
2021,08,18,02,27,12.30
2021,08,18,02,28,12.30
2021,08,18,02,29,12.30
2021,08,18,02,30,12.30
2021,08,18,02,31,12.30
2021,08,18,02,32,12.30
2021,08,18,02,33,12.30
2021,08,18,02,34,12.20
2021,08,18,02,35,12.20
2021,08,18,02,36,12.20
2021,08,18,02,37,12.20
2021,08,18,02,38,12.20
2021,08,18,02,39,12.20
2021,08,18,02,40,12.20
2021,08,18,02,41,12.20
2021,08,18,02,42,12.10
2021,08,18,02,43,12.10
2021,08,18,02,44,12.10
2021,08,18,02,45,12.10
2021,08,18,02,46,12.10
2021,08,18,02,47,12.10
2021,08,18,02,48,12.00
2021,08,18,02,49,12.00
2021,08,18,02,50,12.00
2021,08,18,02,51,12.00
2021,08,18,02,52,12.10
2021,08,18,02,53,12.00
2021,08,18,02,54,12.00
2021,08,18,02,55,12.10
2021,08,18,02,56,12.10
2021,08,18,02,57,12.10
2021,08,18,02,58,12.00
2021,08,18,02,59,12.00
2021,08,18,03,00,12.00
2021,08,18,03,01,12.00
2021,08,18,03,02,12.00
2021,08,18,03,03,12.00
2021,08,18,03,04,12.00
2021,08,18,03,05,12.00
2021,08,18,03,06,12.00
2021,08,18,03,07,12.00
2021,08,18,03,08,12.00
2021,08,18,03,09,12.10
2021,08,18,03,10,12.10
2021,08,18,03,11,12.10
2021,08,18,03,12,12.10
2021,08,18,03,13,12.10
2021,08,18,03,14,12.10
2021,08,18,03,15,12.00
2021,08,18,03,16,12.00
2021,08,18,03,17,12.00
2021,08,18,03,18,12.00
2021,08,18,03,19,11.90
2021,08,18,03,20,12.00
2021,08,18,03,21,11.90
2021,08,18,03,22,12.00
2021,08,18,03,23,11.90
2021,08,18,03,24,11.90
2021,08,18,03,25,11.90
2021,08,18,03,26,11.90
2021,08,18,03,27,11.90
2021,08,18,03,28,11.90
2021,08,18,03,29,11.90
2021,08,18,03,30,11.90
2021,08,18,03,31,11.80
2021,08,18,03,32,11.80
2021,08,18,03,33,11.80
2021,08,18,03,34,11.80
2021,08,18,03,35,11.80
2021,08,18,03,36,11.80
2021,08,18,03,37,11.80
2021,08,18,03,38,11.80
2021,08,18,03,39,11.80
2021,08,18,03,40,11.80
2021,08,18,03,41,11.80
2021,08,18,03,42,11.80
2021,08,18,03,43,11.80
2021,08,18,03,44,11.80
2021,08,18,03,45,11.80
2021,08,18,03,46,11.80
2021,08,18,03,47,11.80
2021,08,18,03,48,11.80
2021,08,18,03,49,11.80
2021,08,18,03,50,11.80
2021,08,18,03,51,11.80
2021,08,18,03,52,11.80
2021,08,18,03,53,11.80
2021,08,18,03,54,11.70
2021,08,18,03,55,11.70
2021,08,18,03,56,11.70
2021,08,18,03,57,11.70
2021,08,18,03,58,11.70
2021,08,18,03,59,11.70
2021,08,18,04,00,11.70
2021,08,18,04,01,11.70
2021,08,18,04,02,11.70
2021,08,18,04,03,11.70
2021,08,18,04,04,11.70
2021,08,18,04,05,11.70
2021,08,18,04,06,11.70
2021,08,18,04,07,11.70
2021,08,18,04,08,11.70
2021,08,18,04,09,11.70
2021,08,18,04,10,11.70
2021,08,18,04,11,11.70
2021,08,18,04,12,11.70
2021,08,18,04,13,11.70
2021,08,18,04,14,11.70
2021,08,18,04,15,11.70
2021,08,18,04,16,11.70
2021,08,18,04,17,11.70
2021,08,18,04,18,11.70
2021,08,18,04,19,11.70
2021,08,18,04,20,11.70
2021,08,18,04,21,11.70
2021,08,18,04,22,11.70
2021,08,18,04,23,11.70
2021,08,18,04,24,11.70
2021,08,18,04,25,11.70
2021,08,18,04,26,11.70
2021,08,18,04,27,11.70
2021,08,18,04,28,11.70
2021,08,18,04,29,11.70
2021,08,18,04,30,11.60
2021,08,18,04,31,11.60
2021,08,18,04,32,11.60
2021,08,18,04,33,11.60
2021,08,18,04,34,11.60
2021,08,18,04,35,11.60
2021,08,18,04,36,11.60
2021,08,18,04,37,11.60
2021,08,18,04,38,11.60
2021,08,18,04,39,11.60
2021,08,18,04,40,11.60
2021,08,18,04,41,11.50
2021,08,18,04,42,11.50
2021,08,18,04,43,11.50
2021,08,18,04,44,11.50
2021,08,18,04,45,11.50
2021,08,18,04,46,11.60
2021,08,18,04,47,11.60
2021,08,18,04,48,11.60
2021,08,18,04,49,11.60
2021,08,18,04,50,11.60
2021,08,18,04,51,11.60
2021,08,18,04,52,11.60
2021,08,18,04,53,11.60
2021,08,18,04,54,11.50
2021,08,18,04,55,11.50
2021,08,18,04,56,11.50
2021,08,18,04,57,11.50
2021,08,18,04,58,11.50
2021,08,18,04,59,11.50
2021,08,18,05,00,11.40
2021,08,18,05,01,11.40
2021,08,18,05,02,11.40
2021,08,18,05,03,11.40
2021,08,18,05,04,11.40
2021,08,18,05,05,11.30
2021,08,18,05,06,11.30
2021,08,18,05,07,11.30
2021,08,18,05,08,11.30
2021,08,18,05,09,11.30
2021,08,18,05,10,11.30
2021,08,18,05,11,11.30
2021,08,18,05,12,11.30
2021,08,18,05,13,11.30
2021,08,18,05,14,11.30
2021,08,18,05,15,11.30
2021,08,18,05,16,11.30
2021,08,18,05,17,11.20
2021,08,18,05,18,11.20
2021,08,18,05,19,11.20
2021,08,18,05,20,11.20
2021,08,18,05,21,11.20
2021,08,18,05,22,11.20
2021,08,18,05,23,11.10
2021,08,18,05,24,11.10
2021,08,18,05,25,11.10
2021,08,18,05,26,11.10
2021,08,18,05,27,11.10
2021,08,18,05,28,11.10
2021,08,18,05,29,11.10
2021,08,18,05,30,11.10
2021,08,18,05,31,11.10
2021,08,18,05,32,11.10
2021,08,18,05,33,11.00
2021,08,18,05,34,11.00
2021,08,18,05,35,11.00
2021,08,18,05,36,11.00
2021,08,18,05,37,11.00
2021,08,18,05,38,11.00
2021,08,18,05,39,11.00
2021,08,18,05,40,11.00
2021,08,18,05,41,11.00
2021,08,18,05,42,11.10
2021,08,18,05,43,11.10
2021,08,18,05,44,11.00
2021,08,18,05,45,11.10
2021,08,18,05,46,11.00
2021,08,18,05,47,11.10
2021,08,18,05,48,11.00
2021,08,18,05,49,11.00
2021,08,18,05,50,11.00
2021,08,18,05,51,11.00
2021,08,18,05,52,11.00
2021,08,18,05,53,11.00
2021,08,18,05,54,11.00
2021,08,18,05,55,11.00
2021,08,18,05,56,11.00
2021,08,18,05,57,10.90
2021,08,18,05,58,10.90
2021,08,18,05,59,10.90
2021,08,18,06,00,10.90
2021,08,18,06,01,10.90
2021,08,18,06,02,10.90
2021,08,18,06,03,10.90
2021,08,18,06,04,10.90
2021,08,18,06,05,10.90
2021,08,18,06,06,10.90
2021,08,18,06,07,10.90
2021,08,18,06,08,10.80
2021,08,18,06,09,10.80
2021,08,18,06,10,10.80
2021,08,18,06,11,10.80
2021,08,18,06,12,10.80
2021,08,18,06,13,10.80
2021,08,18,06,14,10.80
2021,08,18,06,15,10.80
2021,08,18,06,16,10.80
2021,08,18,06,17,10.80
2021,08,18,06,18,10.80
2021,08,18,06,19,10.80
2021,08,18,06,20,10.80
2021,08,18,06,21,10.80
2021,08,18,06,22,10.80
2021,08,18,06,23,10.80
2021,08,18,06,24,10.80
2021,08,18,06,25,10.80
2021,08,18,06,26,10.80
2021,08,18,06,27,10.80
2021,08,18,06,28,10.80
2021,08,18,06,29,10.80
2021,08,18,06,30,10.70
2021,08,18,06,31,10.80
2021,08,18,06,32,10.70
2021,08,18,06,33,10.70
2021,08,18,06,34,10.70
2021,08,18,06,35,10.70
2021,08,18,06,36,10.70
2021,08,18,06,37,10.70
2021,08,18,06,38,10.70
2021,08,18,06,39,10.70
2021,08,18,06,40,10.60
2021,08,18,06,41,10.60
2021,08,18,06,42,10.60
2021,08,18,06,43,10.60
2021,08,18,06,44,10.60
2021,08,18,06,45,10.60
2021,08,18,06,46,10.60
2021,08,18,06,47,10.60
2021,08,18,06,48,10.60
2021,08,18,06,49,10.60
2021,08,18,06,50,10.60
2021,08,18,06,51,10.70
2021,08,18,06,52,10.70
2021,08,18,06,53,10.70
2021,08,18,06,54,10.70
2021,08,18,06,55,10.70
2021,08,18,06,56,10.70
2021,08,18,06,57,10.70
2021,08,18,06,58,10.80
2021,08,18,06,59,10.80
2021,08,18,07,00,10.80
2021,08,18,07,01,10.80
2021,08,18,07,02,10.80
2021,08,18,07,03,10.80
2021,08,18,07,04,10.80
2021,08,18,07,05,10.80
2021,08,18,07,06,10.80
2021,08,18,07,07,10.90
2021,08,18,07,08,10.90
2021,08,18,07,09,10.90
2021,08,18,07,10,10.90
2021,08,18,07,11,10.90
2021,08,18,07,12,10.90
2021,08,18,07,13,10.90
2021,08,18,07,14,10.90
2021,08,18,07,15,10.90
2021,08,18,07,16,10.90
2021,08,18,07,17,10.90
2021,08,18,07,18,10.90
2021,08,18,07,19,11.00
2021,08,18,07,20,11.00
2021,08,18,07,21,11.00
2021,08,18,07,22,11.00
2021,08,18,07,23,11.00
2021,08,18,07,24,11.00
2021,08,18,07,25,11.00
2021,08,18,07,26,11.00
2021,08,18,07,27,11.10
2021,08,18,07,28,11.10
2021,08,18,07,29,11.10
2021,08,18,07,30,11.20
2021,08,18,07,31,11.20
2021,08,18,07,32,11.20
2021,08,18,07,33,11.20
2021,08,18,07,34,11.20
2021,08,18,07,35,11.20
2021,08,18,07,36,11.20
2021,08,18,07,37,11.30
2021,08,18,07,38,11.30
2021,08,18,07,39,11.30
2021,08,18,07,40,11.30
2021,08,18,07,41,11.30
2021,08,18,07,42,11.40
2021,08,18,07,43,11.40
2021,08,18,07,44,11.50
2021,08,18,07,45,11.50
2021,08,18,07,46,11.50
2021,08,18,07,47,11.60
2021,08,18,07,48,11.60
2021,08,18,07,49,11.70
2021,08,18,07,50,11.80
2021,08,18,07,51,11.90
2021,08,18,07,52,11.90
2021,08,18,07,53,12.00
2021,08,18,07,54,12.10
2021,08,18,07,55,12.20
2021,08,18,07,56,12.20
2021,08,18,07,57,12.30
2021,08,18,07,58,12.30
2021,08,18,07,59,12.40
2021,08,18,08,00,12.40
2021,08,18,08,01,12.60
2021,08,18,08,02,12.70
2021,08,18,08,03,12.80
2021,08,18,08,04,12.80
2021,08,18,08,05,12.90
2021,08,18,08,06,13.00
2021,08,18,08,07,13.10
2021,08,18,08,08,13.20
2021,08,18,08,09,13.30
2021,08,18,08,10,13.50
2021,08,18,08,11,13.60
2021,08,18,08,12,13.70
2021,08,18,08,13,13.90
2021,08,18,08,14,14.00
2021,08,18,08,15,14.20
2021,08,18,08,16,14.40
2021,08,18,08,17,14.50
2021,08,18,08,18,14.70
2021,08,18,08,19,14.80
2021,08,18,08,20,15.00
2021,08,18,08,21,15.10
2021,08,18,08,22,15.20
2021,08,18,08,23,15.30
2021,08,18,08,24,15.40
2021,08,18,08,25,15.50
2021,08,18,08,26,15.70
2021,08,18,08,27,15.80
2021,08,18,08,28,16.00
2021,08,18,08,29,16.10
2021,08,18,08,30,16.30
2021,08,18,08,31,16.40
2021,08,18,08,32,16.50
2021,08,18,08,33,16.60
2021,08,18,08,34,16.70
2021,08,18,08,35,16.90
2021,08,18,08,36,17.00
2021,08,18,08,37,17.10
2021,08,18,08,38,17.20
2021,08,18,08,39,17.30
2021,08,18,08,40,17.50
2021,08,18,08,41,17.60
2021,08,18,08,42,17.70
2021,08,18,08,43,17.90
2021,08,18,08,44,17.90
2021,08,18,08,45,18.10
2021,08,18,08,46,18.20
2021,08,18,08,47,18.30
2021,08,18,08,48,18.30
2021,08,18,08,49,18.40
2021,08,18,08,50,18.40
2021,08,18,08,51,18.40
2021,08,18,08,52,18.40
2021,08,18,08,53,18.40
2021,08,18,08,54,18.40
2021,08,18,08,55,18.40
2021,08,18,08,56,18.50
2021,08,18,08,57,18.50
2021,08,18,08,58,18.50
2021,08,18,08,59,18.50
2021,08,18,09,00,18.40
2021,08,18,09,01,18.30
2021,08,18,09,02,18.30
2021,08,18,09,03,18.20
2021,08,18,09,04,18.20
2021,08,18,09,05,18.20
2021,08,18,09,06,18.10
2021,08,18,09,07,18.10
2021,08,18,09,08,18.10
2021,08,18,09,09,18.10
2021,08,18,09,10,18.10
2021,08,18,09,11,18.00
2021,08,18,09,12,18.00
2021,08,18,09,13,18.00
2021,08,18,09,14,17.90
2021,08,18,09,15,17.90
2021,08,18,09,16,17.90
2021,08,18,09,17,17.90
2021,08,18,09,18,17.90
2021,08,18,09,19,18.00
2021,08,18,09,20,18.10
2021,08,18,09,21,18.10
2021,08,18,09,22,18.10
2021,08,18,09,23,18.20
2021,08,18,09,24,18.20
2021,08,18,09,25,18.30
2021,08,18,09,26,18.30
2021,08,18,09,27,18.30
2021,08,18,09,28,18.30
2021,08,18,09,29,18.30
2021,08,18,09,30,18.40
2021,08,18,09,31,18.40
2021,08,18,09,32,18.40
2021,08,18,09,33,18.40
2021,08,18,09,34,18.40
2021,08,18,09,35,18.40
2021,08,18,09,36,18.50
2021,08,18,09,37,18.50
2021,08,18,09,38,18.50
2021,08,18,09,39,18.50
2021,08,18,09,40,18.60
2021,08,18,09,41,18.60
2021,08,18,09,42,18.60
2021,08,18,09,43,18.50
2021,08,18,09,44,18.50
2021,08,18,09,45,18.40
2021,08,18,09,46,18.40
2021,08,18,09,47,18.40
2021,08,18,09,48,18.50
2021,08,18,09,49,18.50
2021,08,18,09,50,18.50
2021,08,18,09,51,18.50
2021,08,18,09,52,18.50
2021,08,18,09,53,18.50
2021,08,18,09,54,18.50
2021,08,18,09,55,18.60
2021,08,18,09,56,18.60
2021,08,18,09,57,18.60
2021,08,18,09,58,18.60
2021,08,18,09,59,18.60
2021,08,18,10,00,18.70
2021,08,18,10,01,18.70
2021,08,18,10,02,18.70
2021,08,18,10,03,18.70
2021,08,18,10,04,18.70
2021,08,18,10,05,18.80
2021,08,18,10,06,18.80
2021,08,18,10,07,18.80
2021,08,18,10,08,18.90
2021,08,18,10,09,18.90
2021,08,18,10,10,18.90
2021,08,18,10,11,18.90
2021,08,18,10,12,18.90
2021,08,18,10,13,18.90
2021,08,18,10,14,18.90
2021,08,18,10,15,18.90
2021,08,18,10,16,18.90
2021,08,18,10,17,18.80
2021,08,18,10,18,18.80
2021,08,18,10,19,18.80
2021,08,18,10,20,18.80
2021,08,18,10,21,19.00
2021,08,18,10,22,19.10
2021,08,18,10,23,19.10
2021,08,18,10,24,19.20
2021,08,18,10,25,19.20
2021,08,18,10,26,19.30
2021,08,18,10,27,19.40
2021,08,18,10,28,19.40
2021,08,18,10,29,19.50
2021,08,18,10,30,19.50
2021,08,18,10,31,19.50
2021,08,18,10,32,19.40
2021,08,18,10,33,19.40
2021,08,18,10,34,19.40
2021,08,18,10,35,19.40
2021,08,18,10,36,19.40
2021,08,18,10,37,19.40
2021,08,18,10,38,19.40
2021,08,18,10,39,19.40
2021,08,18,10,40,19.50
2021,08,18,10,41,19.60
2021,08,18,10,42,19.60
2021,08,18,10,43,19.70
2021,08,18,10,44,19.80
2021,08,18,10,45,20.00
2021,08,18,10,46,20.10
2021,08,18,10,47,20.30
2021,08,18,10,48,20.30
2021,08,18,10,49,20.30
2021,08,18,10,50,20.30
2021,08,18,10,51,20.20
2021,08,18,10,52,20.10
2021,08,18,10,53,20.00
2021,08,18,10,54,19.90
2021,08,18,10,55,19.90
2021,08,18,10,56,19.90
2021,08,18,10,57,20.00
2021,08,18,10,58,20.10
2021,08,18,10,59,20.10
2021,08,18,11,00,20.00
2021,08,18,11,01,20.00
2021,08,18,11,02,20.10
2021,08,18,11,03,20.20
2021,08,18,11,04,20.30
2021,08,18,11,05,20.40
2021,08,18,11,06,20.40
2021,08,18,11,07,20.50
2021,08,18,11,08,20.60
2021,08,18,11,09,20.70
2021,08,18,11,10,20.80
2021,08,18,11,11,21.00
2021,08,18,11,12,21.10
2021,08,18,11,13,21.10
2021,08,18,11,14,21.00
2021,08,18,11,15,21.10
2021,08,18,11,16,21.10
2021,08,18,11,17,21.20
2021,08,18,11,18,21.30
2021,08,18,11,19,21.40
2021,08,18,11,20,21.40
2021,08,18,11,21,21.40
2021,08,18,11,22,21.50
2021,08,18,11,23,21.50
2021,08,18,11,24,21.60
2021,08,18,11,25,21.60
2021,08,18,11,26,21.50
2021,08,18,11,27,21.40
2021,08,18,11,28,21.30
2021,08,18,11,29,21.30
2021,08,18,11,30,21.40
2021,08,18,11,31,21.50
2021,08,18,11,32,21.60
2021,08,18,11,33,21.70
2021,08,18,11,34,21.70
2021,08,18,11,35,21.80
2021,08,18,11,36,21.90
2021,08,18,11,37,22.00
2021,08,18,11,38,22.20
2021,08,18,11,39,22.20
2021,08,18,11,40,22.20
2021,08,18,11,41,22.20
2021,08,18,11,42,22.00
2021,08,18,11,43,21.90
2021,08,18,11,44,21.90
2021,08,18,11,45,21.90
2021,08,18,11,46,21.80
2021,08,18,11,47,21.80
2021,08,18,11,48,21.90
2021,08,18,11,49,22.00
2021,08,18,11,50,22.10
2021,08,18,11,51,22.00
2021,08,18,11,52,22.00
2021,08,18,11,53,21.90
2021,08,18,11,54,22.00
2021,08,18,11,55,22.10
2021,08,18,11,56,22.20
2021,08,18,11,57,22.20
2021,08,18,11,58,22.30
2021,08,18,11,59,22.20
2021,08,18,12,00,22.10
2021,08,18,12,01,22.00
2021,08,18,12,02,21.90
2021,08,18,12,03,21.90
2021,08,18,12,04,21.90
2021,08,18,12,05,21.90
2021,08,18,12,06,22.00
2021,08,18,12,07,22.00
2021,08,18,12,08,22.00
2021,08,18,12,09,21.80
2021,08,18,12,10,21.70
2021,08,18,12,11,21.60
2021,08,18,12,12,21.60
2021,08,18,12,13,21.60
2021,08,18,12,14,21.70
2021,08,18,12,15,21.90
2021,08,18,12,16,22.00
2021,08,18,12,17,22.10
2021,08,18,12,18,22.20
2021,08,18,12,19,22.20
2021,08,18,12,20,22.20
2021,08,18,12,21,22.20
2021,08,18,12,22,22.10
2021,08,18,12,23,22.00
2021,08,18,12,24,22.00
2021,08,18,12,25,21.90
2021,08,18,12,26,21.90
2021,08,18,12,27,21.90
2021,08,18,12,28,21.90
2021,08,18,12,29,21.80
2021,08,18,12,30,21.70
2021,08,18,12,31,21.70
2021,08,18,12,32,21.70
2021,08,18,12,33,21.80
2021,08,18,12,34,21.80
2021,08,18,12,35,21.70
2021,08,18,12,36,21.70
2021,08,18,12,37,21.70
2021,08,18,12,38,21.70
2021,08,18,12,39,21.80
2021,08,18,12,40,21.80
2021,08,18,12,41,21.80
2021,08,18,12,42,21.90
2021,08,18,12,43,21.90
2021,08,18,12,44,21.90
2021,08,18,12,45,22.10
2021,08,18,12,46,22.10
2021,08,18,12,47,22.10
2021,08,18,12,48,22.10
2021,08,18,12,49,22.10
2021,08,18,12,50,22.10
2021,08,18,12,51,22.10
2021,08,18,12,52,22.10
2021,08,18,12,53,22.10
2021,08,18,12,54,22.00
2021,08,18,12,55,21.90
2021,08,18,12,56,21.90
2021,08,18,12,57,21.90
2021,08,18,12,58,21.90
2021,08,18,12,59,22.00
2021,08,18,13,00,22.10
2021,08,18,13,01,22.20
2021,08,18,13,02,22.40
2021,08,18,13,03,22.40
2021,08,18,13,04,22.50
2021,08,18,13,05,22.70
2021,08,18,13,06,22.80
2021,08,18,13,07,22.80
2021,08,18,13,08,22.90
2021,08,18,13,09,23.00
2021,08,18,13,10,23.20
2021,08,18,13,11,23.20
2021,08,18,13,12,23.20
2021,08,18,13,13,23.20
2021,08,18,13,14,23.10
2021,08,18,13,15,23.10
2021,08,18,13,16,23.30
2021,08,18,13,17,23.40
2021,08,18,13,18,23.50
2021,08,18,13,19,23.50
2021,08,18,13,20,23.40
2021,08,18,13,21,23.40
2021,08,18,13,22,23.20
2021,08,18,13,23,23.20
2021,08,18,13,24,23.20
2021,08,18,13,25,23.20
2021,08,18,13,26,23.20
2021,08,18,13,27,23.10
2021,08,18,13,28,23.10
2021,08,18,13,29,23.00
2021,08,18,13,30,23.00
2021,08,18,13,31,22.90
2021,08,18,13,32,22.90
2021,08,18,13,33,22.80
2021,08,18,13,34,22.80
2021,08,18,13,35,22.70
2021,08,18,13,36,22.70
2021,08,18,13,37,22.70
2021,08,18,13,38,22.70
2021,08,18,13,39,22.80
2021,08,18,13,40,23.00
2021,08,18,13,41,23.10
2021,08,18,13,42,23.30
2021,08,18,13,43,23.40
2021,08,18,13,44,23.50
2021,08,18,13,45,23.50
2021,08,18,13,46,23.50
2021,08,18,13,47,23.50
2021,08,18,13,48,23.40
2021,08,18,13,49,23.30
2021,08,18,13,50,23.20
2021,08,18,13,51,23.00
2021,08,18,13,52,22.90
2021,08,18,13,53,22.80
2021,08,18,13,54,22.70
2021,08,18,13,55,22.50
2021,08,18,13,56,22.40
2021,08,18,13,57,22.40
2021,08,18,13,58,22.50
2021,08,18,13,59,22.60
2021,08,18,14,00,22.80
2021,08,18,14,01,22.90
2021,08,18,14,02,22.90
2021,08,18,14,03,22.90
2021,08,18,14,04,22.80
2021,08,18,14,05,22.80
2021,08,18,14,06,22.80
2021,08,18,14,07,22.80
2021,08,18,14,08,22.90
2021,08,18,14,09,23.00
2021,08,18,14,10,23.10
2021,08,18,14,11,23.20
2021,08,18,14,12,23.30
2021,08,18,14,13,23.40
2021,08,18,14,14,23.60
2021,08,18,14,15,23.70
2021,08,18,14,16,23.60
2021,08,18,14,17,23.50
2021,08,18,14,18,23.40
2021,08,18,14,19,23.40
2021,08,18,14,20,23.40
2021,08,18,14,21,23.60
2021,08,18,14,22,23.70
2021,08,18,14,23,23.80
2021,08,18,14,24,23.80
2021,08,18,14,25,23.80
2021,08,18,14,26,23.80
2021,08,18,14,27,23.80
2021,08,18,14,28,23.90
2021,08,18,14,29,24.00
2021,08,18,14,30,24.00
2021,08,18,14,31,24.00
2021,08,18,14,32,23.90
2021,08,18,14,33,23.80
2021,08,18,14,34,23.90
2021,08,18,14,35,23.90
2021,08,18,14,36,23.90
2021,08,18,14,37,23.90
2021,08,18,14,38,24.00
2021,08,18,14,39,24.10
2021,08,18,14,40,24.20
2021,08,18,14,41,24.20
2021,08,18,14,42,24.20
2021,08,18,14,43,24.10
2021,08,18,14,44,24.00
2021,08,18,14,45,24.00
2021,08,18,14,46,24.00
2021,08,18,14,47,24.00
2021,08,18,14,48,23.90
2021,08,18,14,49,23.80
2021,08,18,14,50,23.80
2021,08,18,14,51,23.80
2021,08,18,14,52,23.80
2021,08,18,14,53,23.70
2021,08,18,14,54,23.70
2021,08,18,14,55,23.80
2021,08,18,14,56,23.90
2021,08,18,14,57,24.00
2021,08,18,14,58,24.10
2021,08,18,14,59,24.10
2021,08,18,15,00,24.20
2021,08,18,15,01,24.30
2021,08,18,15,02,24.30
2021,08,18,15,03,24.30
2021,08,18,15,04,24.20
2021,08,18,15,05,24.10
2021,08,18,15,06,24.00
2021,08,18,15,07,23.90
2021,08,18,15,08,24.00
2021,08,18,15,09,24.00
2021,08,18,15,10,24.00
2021,08,18,15,11,24.10
2021,08,18,15,12,24.10
2021,08,18,15,13,24.20
2021,08,18,15,14,24.20
2021,08,18,15,15,24.20
2021,08,18,15,16,24.20
2021,08,18,15,17,24.20
2021,08,18,15,18,24.10
2021,08,18,15,19,24.10
2021,08,18,15,20,24.20
2021,08,18,15,21,24.20
2021,08,18,15,22,24.30
2021,08,18,15,23,24.50
2021,08,18,15,24,24.50
2021,08,18,15,25,24.40
2021,08,18,15,26,24.50
2021,08,18,15,27,24.50
2021,08,18,15,28,24.40
2021,08,18,15,29,24.40
2021,08,18,15,30,24.40
2021,08,18,15,31,24.30
2021,08,18,15,32,24.20
2021,08,18,15,33,24.20
2021,08,18,15,34,24.10
2021,08,18,15,35,24.10
2021,08,18,15,36,24.20
2021,08,18,15,37,24.30
2021,08,18,15,38,24.40
2021,08,18,15,39,24.40
2021,08,18,15,40,24.40
2021,08,18,15,41,24.40
2021,08,18,15,42,24.50
2021,08,18,15,43,24.50
2021,08,18,15,44,24.60
2021,08,18,15,45,24.70
2021,08,18,15,46,24.80
2021,08,18,15,47,24.80
2021,08,18,15,48,24.90
2021,08,18,15,49,24.90
2021,08,18,15,50,24.80
2021,08,18,15,51,24.80
2021,08,18,15,52,24.80
2021,08,18,15,53,24.90
2021,08,18,15,54,25.00
2021,08,18,15,55,25.00
2021,08,18,15,56,25.00
2021,08,18,15,57,25.00
2021,08,18,15,58,24.90
2021,08,18,15,59,24.90
2021,08,18,16,00,24.90
2021,08,18,16,01,24.80
2021,08,18,16,02,24.70
2021,08,18,16,03,24.70
2021,08,18,16,04,24.70
2021,08,18,16,05,24.60
2021,08,18,16,06,24.50
2021,08,18,16,07,24.50
2021,08,18,16,08,24.60
2021,08,18,16,09,24.50
2021,08,18,16,10,24.40
2021,08,18,16,11,24.30
2021,08,18,16,12,24.20
2021,08,18,16,13,24.20
2021,08,18,16,14,24.20
2021,08,18,16,15,24.20
2021,08,18,16,16,24.20
2021,08,18,16,17,24.30
2021,08,18,16,18,24.30
2021,08,18,16,19,24.20
2021,08,18,16,20,24.20
2021,08,18,16,21,24.20
2021,08,18,16,22,24.30
2021,08,18,16,23,24.40
2021,08,18,16,24,24.50
2021,08,18,16,25,24.60
2021,08,18,16,26,24.50
2021,08,18,16,27,24.50
2021,08,18,16,28,24.40
2021,08,18,16,29,24.50
2021,08,18,16,30,24.60
2021,08,18,16,31,24.70
2021,08,18,16,32,24.80
2021,08,18,16,33,24.80
2021,08,18,16,34,24.80
2021,08,18,16,35,24.70
2021,08,18,16,36,24.70
2021,08,18,16,37,24.70
2021,08,18,16,38,24.60
2021,08,18,16,39,24.50
2021,08,18,16,40,24.30
2021,08,18,16,41,24.30
2021,08,18,16,42,24.30
2021,08,18,16,43,24.30
2021,08,18,16,44,24.40
2021,08,18,16,45,24.50
2021,08,18,16,46,24.60
2021,08,18,16,47,24.60
2021,08,18,16,48,24.60
2021,08,18,16,49,24.50
2021,08,18,16,50,24.50
2021,08,18,16,51,24.50
2021,08,18,16,52,24.60
2021,08,18,16,53,24.60
2021,08,18,16,54,24.60
2021,08,18,16,55,24.50
2021,08,18,16,56,24.50
2021,08,18,16,57,24.50
2021,08,18,16,58,24.60
2021,08,18,16,59,24.50
2021,08,18,17,00,24.50
2021,08,18,17,01,24.60
2021,08,18,17,02,24.70
2021,08,18,17,03,24.70
2021,08,18,17,04,24.70
2021,08,18,17,05,24.80
2021,08,18,17,06,24.80
2021,08,18,17,07,24.80
2021,08,18,17,08,24.80
2021,08,18,17,09,24.90
2021,08,18,17,10,24.90
2021,08,18,17,11,25.10
2021,08,18,17,12,25.10
2021,08,18,17,13,25.10
2021,08,18,17,14,25.10
2021,08,18,17,15,24.90
2021,08,18,17,16,24.70
2021,08,18,17,17,24.60
2021,08,18,17,18,24.60
2021,08,18,17,19,24.60